This is the latest recevied weather packets stored in our database for station/object KC3DGM. If no packets are shown the sender has not sent any weather packets the latest 10 day(s).
| Time | Temp. | Humidity | Pressure | Rain* | Wind** | Luminosity | Snow |
|---|---|---|---|---|---|---|---|
| 1777593649 | 8.89° C | 67% | 985.1 hPa | 0 mm | - | 6 W/m² | - |
| 1777593344 | 8.89° C | 67% | 984.9 hPa | 0 mm | - | 10 W/m² | - |
| 1777593039 | 8.89° C | 67% | 984.8 hPa | 0 mm | - | 11 W/m² | - |
| 1777592738 | 8.89° C | 67% | 984.9 hPa | 0 mm | - | 13 W/m² | - |
| 1777592434 | 8.89° C | 67% | 984.8 hPa | 0 mm | - | 15 W/m² | - |
| 1777592129 | 8.89° C | 69% | 984.9 hPa | 0 mm | - | 15 W/m² | - |
| 1777591827 | 8.89° C | 70% | 984.9 hPa | 0 mm | - | 20 W/m² | - |
| 1777591523 | 8.89° C | 69% | 984.9 hPa | 0 mm | - | 23 W/m² | - |
| 1777591219 | 8.89° C | 68% | 984.7 hPa | 0 mm | - | 28 W/m² | - |
| 1777590914 | 9.44° C | 68% | 984.9 hPa | 0 mm | - | 26 W/m² | - |
| 1777590610 | 9.44° C | 67% | 984.7 hPa | 0 mm | - | 35 W/m² | - |
| 1777590307 | 9.44° C | 68% | 984.8 hPa | 0 mm | - | 43 W/m² | - |
| 1777590004 | 9.44° C | 67% | 984.8 hPa | 0 mm | - | 47 W/m² | - |
| 1777589699 | 8.89° C | 67% | 984.8 hPa | 0 mm | - | 42 W/m² | - |
| 1777589398 | 8.89° C | 67% | 984.7 hPa | 0 mm | - | 45 W/m² | - |
| 1777589095 | 9.44° C | 67% | 984.7 hPa | 0 mm | - | 45 W/m² | - |
| 1777588791 | 9.44° C | 66% | 984.8 hPa | 0 mm | - | 45 W/m² | - |
| 1777588486 | 9.44° C | 67% | 984.7 hPa | 0 mm | - | 56 W/m² | - |
| 1777588181 | 9.44° C | 66% | 984.8 hPa | 0 mm | - | 56 W/m² | - |
| 1777587878 | 10° C | 65% | 984.8 hPa | 0 mm | - | 58 W/m² | - |
| 1777587573 | 10° C | 65% | 984.7 hPa | 0 mm | - | 94 W/m² | - |
| 1777587268 | 9.44° C | 67% | 984.9 hPa | 0 mm | - | 96 W/m² | - |
| 1777586964 | 10° C | 66% | 984.7 hPa | 0 mm | - | 62 W/m² | - |
| 1777586660 | 10° C | 64% | 984.9 hPa | 0 mm | - | 65 W/m² | - |
| 1777586355 | 10° C | 65% | 984.9 hPa | 0 mm | - | 99 W/m² | - |
* Rain latest hour (hover to see other rain measurements)
** Current wind speed in m/s (hover to see current wind gust speed)